Powrót do katalogu

FENGYUN 1C DEB

AktywnySSO
NORAD 32186·DEBRIS·🇨🇳 China

Wystrzelony May 10, 1999 z Taiyuan Satellite Launch Center

Loading…

Następne Przeloty (najbliższe 24 godziny)

TLE

ŚwieżeSource: Space-Track

Epoka: Sep 12, 2026, 22:46 UTC

1 32186U 99025CUG 26255.94869505  .00000858  00000-0  69541-3 0  9990
2 32186  99.5865 314.1202 0272836 204.4470 331.6309 13.77062701663831

Śledź FENGYUN 1C DEB w czasie rzeczywistym z AllMySat

Download on the App Store